Temp
17 18 17 17 16 16 16 16 15 15 14 14 14 13 13 13 13 12 12 12 11 11 11 10 10 10 10 9 9 9 9 9
18 18 18 17 16 16 16 16 15 15 14 14 13 13 13 12 12 12 12 12 11 11 11 11 10 10 10 9 9 9 9 8
19 19 18 17 17 16 16 16 15 15 14 14 13 13 12 12 12 12 12 11 11 11 11 11 10 10 10 9 9 9 8 8
18 18 17 17 17 16 16 15 15 14 13 13 12 12 12 12 12 11 11 11 10 10 10 10 10 10 10 9 9 8 8 8
17 17 17 17 16 15 15 15 14 13 12 12 12 11 11 11 11 10 10 10 10 10 9 9 9 9 9 9 8 8 7 7
16 15 15 15 15 15 14 13 12 12 11 11 11 11 11 10 10 10 10 9 9 8 8 8 8 8 8 7 7 7 6 5
15 14 14 14 13 12 12 12 12 12 11 11 11 10 10 10 9 9 8 8 8 8 8 8 8 8 7 5 5 5 4 3
13 13 13 12 12 11 11 11 11 11 10 10 10 9 9 8 8 8 8 7 7 7 7 7 6 5 4 2 2 2 1 0
11 11 11 11 11 11 10 10 10 10 9 9 8 8 7 6 7 7 6 6 5 5 5 5 4 2 1 -0 -1 -1 -1 -1
11 10 10 10 10 10 10 9 9 8 8 7 6 5 6 6 6 5 5 5 5 4 3 2 0 -1 -1 -1 -1 -1 -1 -2
10 10 9 9 8 8 7 6 6 6 6 6 5 4 4 4 4 4 4 4 4 3 1 -0 -0 -0 -1 -1 -1 -3 -3 -3
9 9 9 8 7 7 7 6 7 6 6 5 4 3 3 3 3 3 3 2 1 0 -0 -1 -1 -1 -1 -2 -2 -2 -2 -2
8 8 8 7 7 7 7 6 6 5 5 4 3 3 2 2 2 2 0 -1 -1 -2 -2 -3 -3 -2 -2 -2 -2 -3 -3 -3
8 8 8 7 6 6 6 5 5 5 4 3 3 2 2 1 -0 -1 -1 -2 -2 -2 -2 -2 -3 -3 -3 -3 -3 -3 -3 -4
7 6 6 6 6 6 6 5 5 4 3 2 2 1 -0 -1 -1 -2 -2 -3 -3 -3 -3 -3 -3 -3 -3 -3 -4 -4 -4 -4
6 5 5 5 6 6 5 4 3 2 2 1 1 -1 -2 -2 -2 -3 -3 -3 -3 -3 -3 -3 -3 -4 -4 -4 -4 -4 -5 -5
4 4 5 5 4 4 3 2 2 2 1 0 -1 -2 -2 -2 -2 -3 -3 -3 -3 -3 -4 -4 -4 -4 -4 -5 -5 -6 -6 -7
4 4 3 3 3 2 1 1 1 0 -1 -1 -1 -2 -2 -2 -3 -3 -3 -3 -3 -4 -4 -4 -5 -5 -6 -6 -7 -7 -7 -8
3 2 2 2 2 2 1 0 -0 -1 -1 -2 -2 -2 -2 -2 -3 -3 -3 -4 -4 -4 -5 -5 -6 -6 -7 -7 -7 -8 -9 -9
Height
1529 1531 1532 1533 1536 1538 1540 1542 1542 1541 1540 1539 1538 1536 1535 1533 1531 1529 1528 1527 1525 1524 1522 1520 1520 1518 1516 1515 1514 1513 1513 1513
1528 1527 1528 1530 1533 1536 1538 1539 1539 1538 1537 1537 1536 1535 1533 1530 1528 1527 1525 1523 1521 1519 1517 1515 1514 1513 1512 1511 1510 1508 1507 1507
1526 1526 1527 1530 1532 1535 1536 1537 1537 1536 1535 1534 1533 1531 1530 1528 1526 1523 1521 1519 1517 1514 1511 1509 1508 1506 1504 1503 1502 1500 1501 1501
1529 1529 1530 1531 1532 1533 1535 1535 1534 1533 1532 1531 1529 1528 1526 1523 1522 1519 1517 1513 1510 1507 1504 1501 1499 1497 1494 1494 1493 1492 1492 1493
1530 1530 1530 1532 1533 1533 1532 1532 1531 1530 1528 1527 1525 1523 1520 1518 1514 1511 1509 1506 1502 1498 1494 1491 1488 1488 1485 1484 1484 1484 1485 1484
1532 1532 1532 1531 1531 1531 1530 1529 1528 1527 1525 1523 1520 1517 1514 1509 1506 1501 1498 1495 1491 1487 1484 1481 1477 1475 1475 1475 1474 1476 1476 1477
1533 1533 1532 1531 1530 1530 1529 1528 1526 1524 1523 1520 1516 1512 1507 1502 1498 1493 1488 1485 1481 1477 1473 1470 1467 1465 1463 1463 1463 1465 1465 1467
1530 1529 1529 1529 1529 1528 1527 1525 1524 1522 1519 1515 1511 1506 1502 1496 1491 1485 1481 1476 1472 1469 1464 1460 1458 1456 1455 1456 1457 1457 1458 1458
1531 1531 1531 1530 1529 1527 1526 1523 1521 1518 1513 1509 1505 1500 1496 1491 1485 1479 1475 1471 1467 1462 1458 1453 1452 1451 1452 1453 1453 1454 1454 1455
1534 1534 1533 1530 1528 1527 1524 1520 1517 1512 1507 1503 1499 1494 1488 1483 1477 1474 1469 1465 1462 1457 1456 1452 1450 1451 1450 1450 1451 1450 1449 1450
1537 1535 1532 1529 1527 1524 1520 1516 1511 1507 1502 1496 1491 1489 1484 1478 1472 1467 1462 1459 1457 1454 1454 1454 1452 1451 1448 1448 1446 1447 1447 1448
1534 1531 1528 1524 1522 1518 1514 1509 1504 1499 1495 1491 1487 1481 1475 1468 1464 1461 1458 1457 1455 1453 1454 1453 1450 1448 1447 1445 1446 1447 1447 1446
1531 1527 1524 1521 1517 1512 1508 1504 1500 1496 1492 1487 1481 1475 1468 1461 1456 1455 1455 1456 1455 1453 1448 1448 1448 1448 1446 1444 1443 1443 1442 1440
1524 1522 1520 1517 1513 1509 1505 1500 1495 1491 1486 1481 1476 1470 1463 1459 1456 1455 1453 1452 1450 1447 1446 1445 1445 1444 1443 1442 1440 1438 1437 1435
1523 1520 1517 1513 1508 1503 1498 1494 1489 1484 1480 1476 1470 1465 1460 1456 1453 1452 1450 1448 1447 1446 1445 1445 1444 1442 1440 1437 1434 1432 1430 1427
1520 1516 1512 1507 1504 1499 1494 1489 1483 1479 1473 1469 1466 1460 1457 1455 1452 1450 1450 1449 1446 1444 1443 1442 1440 1438 1435 1431 1428 1425 1422 1419
1516 1512 1508 1503 1498 1492 1488 1483 1479 1474 1469 1466 1463 1458 1456 1453 1452 1450 1448 1447 1444 1442 1440 1438 1436 1433 1429 1425 1421 1416 1413 1410
1510 1507 1504 1500 1495 1491 1484 1478 1473 1469 1464 1461 1459 1457 1454 1452 1451 1449 1447 1444 1441 1439 1436 1433 1429 1426 1422 1418 1414 1409 1405 1401
1509 1505 1500 1494 1489 1483 1479 1474 1469 1464 1460 1458 1457 1455 1453 1451 1449 1446 1444 1441 1438 1434 1431 1427 1423 1420 1416 1411 1406 1402 1398 1395
Wind_Speed
21 19 21 19 21 17 13 10 7 9 8 8 9 11 12 15 17 21 22 23 24 25 25 24 23 24 23 24 24 23 22 22
16 19 19 14 17 16 12 8 7 10 10 10 11 13 15 17 20 22 22 25 29 30 31 30 30 30 28 27 27 27 27 26
10 10 6 3 6 8 9 9 11 13 13 14 17 20 22 24 26 28 28 28 29 33 36 38 38 37 36 34 34 35 32 31
9 8 6 3 4 6 7 9 12 16 17 19 21 24 26 27 29 30 29 33 35 36 38 41 43 43 43 42 41 41 39 36
3 0 2 4 6 8 11 14 16 16 16 16 18 21 26 31 33 33 34 34 36 37 38 38 40 46 49 48 47 44 41 39
6 7 7 8 10 11 13 11 8 8 9 13 21 28 32 35 39 41 42 37 30 29 30 31 32 37 45 52 49 43 42 40
9 8 7 6 7 7 7 8 11 13 17 23 28 34 38 41 41 38 36 35 36 36 35 35 35 34 38 41 41 39 37 35
8 8 6 5 6 8 11 15 19 24 29 32 34 34 33 34 35 36 37 35 35 35 33 31 30 29 29 26 27 26 23 23
12 11 11 11 13 18 22 26 29 31 31 30 28 28 30 34 37 35 32 31 34 31 29 24 21 20 19 16 15 16 16 17
14 13 16 22 24 26 27 27 27 26 27 26 27 30 35 39 36 32 27 28 31 28 22 15 14 13 13 14 15 22 15 12
16 22 22 19 21 23 24 24 25 26 29 30 33 38 41 39 37 27 24 27 27 20 15 12 11 14 19 24 24 14 15 14
21 24 22 20 24 25 26 26 30 32 34 34 38 40 42 41 31 24 23 19 14 8 8 13 20 22 11 8 11 12 14 17
25 27 27 23 31 29 30 31 34 33 35 36 41 41 44 33 24 17 9 6 8 9 13 10 9 10 11 14 16 19 21 23
26 30 26 26 29 30 30 30 34 34 33 38 42 42 34 24 15 9 8 10 15 16 19 14 14 16 16 19 21 23 26 28
26 26 26 28 30 31 32 33 34 32 33 37 37 32 25 16 11 12 13 14 13 15 16 17 17 17 20 23 25 28 31 31
22 24 25 27 31 35 35 34 31 31 35 33 25 21 19 18 16 15 13 17 16 12 15 17 20 24 27 29 30 30 31 33
26 26 28 32 37 37 35 31 33 32 35 24 18 17 14 12 13 15 15 16 18 18 18 19 24 27 29 29 29 30 31 33
24 28 33 35 36 37 36 36 31 32 27 23 17 13 13 13 15 15 18 20 18 19 22 26 28 28 28 29 30 32 32 31
26 29 34 40 42 40 36 30 28 29 23 17 15 15 16 17 19 19 20 20 23 25 25 26 27 27 29 31 30 29 28 29
Wind_Direction
241 250 247 242 234 232 235 260 302 310 308 318 324 328 330 327 332 321 316 309 305 299 297 295 287 282 283 277 279 277 274 275
249 253 243 236 234 234 237 261 285 301 304 303 304 320 327 330 337 337 320 311 305 299 295 290 285 280 283 282 277 274 274 274
72 59 75 191 213 223 239 271 285 290 292 298 293 296 302 312 319 319 318 310 306 303 299 294 287 280 276 273 270 269 269 268
92 96 100 156 219 268 276 285 280 279 281 281 285 288 292 298 304 301 298 300 298 295 291 286 279 277 275 271 269 266 264 264
91 283 293 278 260 254 262 268 275 282 288 297 302 303 306 310 307 303 304 299 296 291 288 286 279 272 270 271 268 261 258 253
250 247 257 250 252 257 264 278 299 307 312 311 307 304 301 301 304 303 305 305 301 296 295 295 288 277 271 266 263 252 247 244
273 277 269 273 285 299 318 315 309 301 299 305 308 306 304 306 307 310 310 309 306 301 298 294 289 279 271 268 261 243 237 234
314 314 323 347 4 357 338 326 317 311 308 307 306 308 310 311 312 313 310 307 304 303 302 298 291 277 260 240 228 218 211 215
53 50 37 17 357 341 327 319 311 307 311 313 313 311 314 317 320 315 309 309 310 309 309 302 282 245 217 208 214 226 237 278
42 26 0 344 333 325 318 312 312 315 317 319 319 319 321 322 321 317 306 305 307 306 297 269 228 222 234 240 280 313 315 311
352 343 337 329 327 325 325 323 329 333 333 331 327 324 323 324 326 310 301 296 300 287 261 247 259 285 288 294 310 327 320 319
330 332 324 312 328 328 333 333 333 333 331 329 328 327 328 328 325 311 301 292 278 262 281 297 291 293 306 320 313 302 291 292
326 326 327 324 332 333 330 332 331 328 328 328 329 330 329 325 322 309 285 243 256 292 286 314 321 314 313 309 302 297 297 298
337 336 330 324 330 330 326 326 330 326 322 326 329 327 326 321 299 266 242 241 252 276 295 298 304 306 302 300 301 299 299 300
334 331 329 335 334 334 329 322 321 318 320 327 327 326 333 311 275 254 238 245 263 302 331 323 302 295 299 302 305 304 304 303
330 327 331 332 328 321 323 319 320 319 326 327 321 326 329 322 295 278 288 335 347 318 304 296 296 297 302 306 305 303 300 298
336 330 329 325 325 324 325 324 321 322 328 318 321 328 320 341 335 327 324 319 308 305 297 295 299 300 302 304 305 304 304 302
330 327 325 325 326 325 321 322 324 327 322 306 308 300 311 318 327 323 313 310 304 302 301 303 307 310 310 311 310 307 304 302
330 326 324 326 325 323 319 319 323 324 316 312 319 346 344 326 317 312 308 306 305 307 310 311 310 312 315 313 313 309 308 306